Simultaneous Nadir Overpasses (SNOs) Predictions

Prediction of SNOs between AQUA and NOAA-19 Satellite Orbit:

Table of predicted SNOs for the next 14.0 days since TLE Epoch: 4/17/2015
Index Date (AQUA) Time (AQUA) Lat,Lon (AQUA) SZA (AQUA ) Date (NOAA-19) Time (NOAA-19) Lat,Lon (NOAA-19) SZA (NOAA-19 ) Distance(km) Time Diff (sec)
1 04/18/2015 08:58:36 79.75, 17.07 70.19 04/18/2015 08:57:54 79.75, 17.09 70.21 0.54 42
2 04/18/2015 09:47:58 -79.59,-174.12 110.07 04/18/2015 09:48:55 -79.59,-174.16 110.08 0.87 57
3 04/20/2015 14:32:18 -79.68, 114.11 110.69 04/20/2015 14:32:23 -79.68, 114.20 110.70 1.96 5
4 04/22/2015 19:16:36 -79.77, 42.41 111.31 04/22/2015 19:15:51 -79.77, 42.47 111.30 1.32 45
5 04/22/2015 20:05:59 79.64,-148.99 68.49 04/22/2015 20:06:43 79.63,-148.88 68.45 2.58 44
6 04/25/2015 00:50:15 79.72, 139.36 67.87 04/25/2015 00:50:11 79.72, 139.41 67.87 0.91 4
7 04/27/2015 05:34:30 79.82, 67.51 67.32 04/27/2015 05:33:39 79.81, 67.62 67.32 2.53 51
8 04/27/2015 06:23:52 -79.66,-123.61 112.95 04/27/2015 06:24:39 -79.66,-123.59 112.97 0.32 47




NCC Satellite Simultaneous Nadir Overpasses (SNOs) Prediction Service
